Retour au catalogue

SCOUT G-1 DEB

LostPO
NORAD 29140·DEBRIS·🇺🇸 United States

Lancé Aug 25, 1988 depuis Vandenberg Space Force Base

Loading…

Prochains Passages (prochaines 24 heures)

TLE

PériméSource: Space-Track

Époque: Jun 24, 2006, 16:02 UTC

1 29140U 88074N   06175.66853416 +.00001515 +00000-0 +17158-2 0  9997
2 29140 089.8427 039.6394 0054304 038.1446 320.9096 13.69325368028366

Suivez SCOUT G-1 DEB en temps réel avec AllMySat

Download on the App Store